This is the latest recevied weather packets stored in our database for station/object KK7ISX. If no packets are shown the sender has not sent any weather packets the latest 10 day(s).
| Time | Temp. | Humidity | Pressure | Rain* | Wind** | Luminosity | Snow |
|---|---|---|---|---|---|---|---|
| 1777861929 | 25° C | 32% | 1007 hPa | 0 mm | - | 14 W/m² | - |
| 1777861626 | 25.56° C | 31% | 1007.3 hPa | 0 mm | - | 17 W/m² | - |
| 1777861322 | 25.56° C | 31% | 1007 hPa | 0 mm | - | 21 W/m² | - |
| 1777861020 | 25.56° C | 31% | 1007.2 hPa | 0 mm | - | 25 W/m² | - |
| 1777860716 | 25.56° C | 30% | 1007.3 hPa | 0 mm | - | 30 W/m² | - |
| 1777860413 | 26.11° C | 30% | 1007.3 hPa | 0 mm | - | 35 W/m² | - |
| 1777860109 | 26.11° C | 30% | 1007.3 hPa | 0 mm | - | 39 W/m² | - |
| 1777859806 | 26.11° C | 30% | 1007.2 hPa | 0 mm | - | 44 W/m² | - |
| 1777859502 | 26.11° C | 29% | 1007.3 hPa | 0 mm | - | 52 W/m² | - |
| 1777859198 | 26.11° C | 29% | 1007.1 hPa | 0 mm | - | 62 W/m² | - |
| 1777858896 | 26.67° C | 29% | 1007.3 hPa | 0 mm | - | 68 W/m² | - |
| 1777858593 | 26.67° C | 29% | 1007.3 hPa | 0 mm | - | 76 W/m² | - |
| 1777858290 | 26.67° C | 28% | 1007.4 hPa | 0 mm | - | 85 W/m² | - |
| 1777857987 | 26.67° C | 28% | 1007.3 hPa | 0 mm | - | 93 W/m² | - |
| 1777857685 | 26.67° C | 28% | 1007.7 hPa | 0 mm | - | 101 W/m² | - |
| 1777857382 | 26.67° C | 28% | 1007.7 hPa | 0 mm | - | 109 W/m² | - |
| 1777857078 | 26.67° C | 28% | 1007.8 hPa | 0 mm | - | 56 W/m² | - |
| 1777856774 | 26.67° C | 28% | 1007.8 hPa | 0 mm | - | 125 W/m² | - |
| 1777856470 | 26.67° C | 28% | 1007.9 hPa | 0 mm | - | 140 W/m² | - |
| 1777856167 | 26.67° C | 29% | 1007.9 hPa | 0 mm | - | 152 W/m² | - |
| 1777855864 | 26.67° C | 28% | 1007.8 hPa | 0 mm | - | 162 W/m² | - |
| 1777855562 | 27.22° C | 27% | 1008 hPa | 0 mm | - | 159 W/m² | - |
| 1777855259 | 26.67° C | 28% | 1008.2 hPa | 0 mm | - | 185 W/m² | - |
| 1777854955 | 27.22° C | 28% | 1008.1 hPa | 0 mm | - | 188 W/m² | - |
| 1777854652 | 26.67° C | 28% | 1008.2 hPa | 0 mm | - | 206 W/m² | - |
* Rain latest hour (hover to see other rain measurements)
** Current wind speed in m/s (hover to see current wind gust speed)